| time (UTC) | temp C | wind direction | speed KPH | gust KPH | rain 1hr cm | rain 24hr cm | rain mn cm | humidity % | barometer mb |
| 20260902100033 | 13 | 107 | 0.0 | 0.0 | 0.03 | 0.53 | 0.03 | 93 | 1009.3 |
| 20260902094526 | 13 | 173 | 0.0 | 0.0 | 0.03 | 0.53 | 0.03 | 94 | 1009.7 |
| 20260902093025 | 13 | 53 | 0.0 | 0.0 | 0.03 | 0.53 | 0.03 | 94 | 1009.8 |
| 20260902091536 | 13 | 112 | 0.0 | 0.0 | 0.00 | 0.51 | 0.00 | 95 | 1010.0 |
| 20260902090022 | 13 | 35 | 0.0 | 0.0 | 0.00 | 0.51 | 0.00 | 95 | 1010.0 |
| 20260902084521 | 13 | 189 | 0.0 | 0.0 | 0.00 | 0.51 | 0.00 | 95 | 1010.1 |
| 20260902083020 | 12 | 170 | 0.0 | 0.0 | 0.00 | 0.51 | 0.00 | 95 | 1010.0 |
| 20260902081519 | 12 | 34 | 0.0 | 0.0 | 0.00 | 0.51 | 0.00 | 95 | 1010.1 |
| 20260902080017 | 12 | 44 | 0.0 | 0.0 | 0.00 | 0.51 | 0.00 | 95 | 1010.0 |
| 20260902074516 | 13 | 44 | 0.0 | 0.0 | 0.00 | 0.51 | 0.00 | 95 | 1010.0 |
| 20260902073018 | 13 | 64 | 0.0 | 0.0 | 0.00 | 0.51 | 0.00 | 95 | 1010.0 |
| 20260902071521 | 12 | 40 | 0.0 | 0.0 | 0.00 | 0.51 | 0.00 | 95 | 1010.0 |
| 20260902070016 | 13 | 39 | 0.0 | 0.0 | 0.00 | 0.51 | 0.00 | 95 | 1009.9 |
| 20260902064511 | 13 | 31 | 0.0 | 0.0 | 0.00 | 0.51 | 0.51 | 94 | 1010.0 |
| 20260902063014 | 13 | 44 | 0.0 | 0.0 | 0.00 | 0.51 | 0.51 | 94 | 1010.1 |
| 20260902061510 | 13 | 44 | 0.0 | 0.0 | 0.00 | 0.51 | 0.51 | 94 | 1010.1 |
| 20260902060016 | 13 | 44 | 0.0 | 0.0 | 0.03 | 0.51 | 0.51 | 94 | 1010.2 |
| 20260902054512 | 13 | 50 | 0.0 | 0.0 | 0.03 | 0.51 | 0.51 | 93 | 1010.3 |
| 20260902053011 | 12 | 50 | 0.0 | 0.0 | 0.03 | 0.51 | 0.51 | 93 | 1010.3 |
| 20260902051507 | 13 | 50 | 0.0 | 0.0 | 0.03 | 0.51 | 0.51 | 93 | 1010.3 |
| 20260902050009 | 13 | 50 | 0.0 | 0.0 | 0.00 | 0.48 | 0.48 | 92 | 1010.3 |
| 20260902044506 | 13 | 49 | 0.0 | 0.0 | 0.00 | 0.48 | 0.48 | 91 | 1010.1 |
| 20260902043003 | 13 | 237 | 0.0 | 0.0 | 0.00 | 0.48 | 0.48 | 91 | 1010.0 |
| 20260902041608 | 13 | 236 | 0.0 | 0.0 | 0.00 | 0.48 | 0.48 | 90 | 1009.7 |
| 20260902040100 | 14 | 237 | 0.0 | 0.0 | 0.00 | 0.48 | 0.48 | 90 | 1009.6 |
| 20260902034559 | 14 | 200 | 0.0 | 0.0 | 0.00 | 0.48 | 0.48 | 90 | 1009.2 |
| 20260902033110 | 14 | 40 | 0.0 | 8.0 | 0.00 | 0.48 | 0.48 | 91 | 1008.8 |
| 20260902031557 | 15 | 58 | 0.0 | 0.0 | 0.00 | 0.48 | 0.48 | 90 | 1008.9 |
| 20260902030056 | 15 | 13 | 0.0 | 0.0 | 0.00 | 0.48 | 0.48 | 90 | 1009.6 |
| 20260902024556 | 15 | 13 | 0.0 | 0.0 | 0.00 | 0.48 | 0.48 | 89 | 1009.7 |
| 20260902023108 | 15 | 13 | 0.0 | 0.0 | 0.00 | 0.48 | 0.48 | 88 | 1010.0 |
| 20260902021612 | 16 | 13 | 0.0 | 0.0 | 0.00 | 0.48 | 0.48 | 88 | 1009.7 |
| 20260902020059 | 16 | 13 | 0.0 | 1.6 | 0.00 | 0.48 | 0.48 | 87 | 1009.8 |
| 20260902014554 | 16 | 180 | 0.0 | 0.0 | 0.00 | 0.48 | 0.48 | 85 | 1010.0 |
| 20260902013054 | 16 | 206 | 0.0 | 0.0 | 0.00 | 0.48 | 0.48 | 84 | 1010.1 |
| 20260902011554 | 16 | 218 | 0.0 | 0.0 | 0.00 | 0.48 | 0.48 | 84 | 1010.0 |
| 20260902010100 | 16 | 237 | 0.0 | 0.0 | 0.00 | 0.48 | 0.48 | 82 | 1010.1 |
| 20260902004553 | 17 | 202 | 0.0 | 0.0 | 0.00 | 0.48 | 0.48 | 80 | 1010.1 |
| 20260902003052 | 17 | 258 | 0.0 | 0.0 | 0.00 | 0.48 | 0.48 | 78 | 1010.0 |
| 20260902001552 | 18 | 232 | 0.0 | 0.0 | 0.00 | 0.48 | 0.48 | 76 | 1009.9 |
| 20260902000056 | 18 | 227 | 0.0 | 0.0 | 0.00 | 0.48 | 0.48 | 74 | 1009.7 |
| 20260901234609 | 18 | 223 | 0.0 | 0.0 | 0.00 | 0.48 | 0.48 | 73 | 1009.5 |
| 20260901233050 | 20 | 248 | 0.0 | 0.0 | 0.00 | 0.48 | 0.48 | 74 | 1009.4 |
| 20260901231551 | 20 | 251 | 0.0 | 9.7 | 0.00 | 0.48 | 0.48 | 74 | 1009.4 |
| 20260901230125 | 19 | 240 | 0.0 | 1.6 | 0.00 | 0.48 | 0.48 | 74 | 1009.5 |
| 20260901224542 | 18 | 225 | 0.0 | 0.0 | 0.00 | 0.48 | 0.48 | 82 | 1009.5 |
| 20260901223104 | 18 | 208 | 0.0 | 1.6 | 0.00 | 0.48 | 0.48 | 83 | 1009.7 |
| 20260901221540 | 18 | 256 | 0.0 | 0.0 | 0.00 | 0.48 | 0.48 | 84 | 1009.9 |
| 20260901220042 | 17 | 301 | 0.0 | 0.0 | 0.00 | 0.48 | 0.48 | 83 | 1010.0 |
| 20260901214537 | 17 | 173 | 0.0 | 0.0 | 0.00 | 0.48 | 0.48 | 89 | 1010.0 |
| 20260901213039 | 17 | 221 | 0.0 | 0.0 | 0.00 | 0.48 | 0.48 | 88 | 1010.1 |
| 20260901211541 | 17 | 229 | 0.0 | 0.0 | 0.00 | 0.48 | 0.48 | 91 | 1010.1 |
| 20260901210028 | 17 | 230 | 0.0 | 0.0 | 0.00 | 0.48 | 0.48 | 91 | 1010.1 |
| 20260901204540 | 17 | 225 | 0.0 | 0.0 | 0.00 | 0.48 | 0.48 | 89 | 1010.0 |
| 20260901203028 | 18 | 262 | 0.0 | 0.0 | 0.00 | 0.48 | 0.48 | 90 | 1009.8 |
| 20260901201524 | 17 | 112 | 0.0 | 1.6 | 0.00 | 0.48 | 0.48 | 93 | 1010.0 |
| 20260901200036 | 17 | 57 | 0.0 | 0.0 | 0.00 | 0.48 | 0.48 | 94 | 1010.1 |
| 20260901194522 | 16 | 191 | 0.0 | 0.0 | 0.00 | 0.48 | 0.48 | 94 | 1010.4 |
| 20260901193117 | 16 | 191 | 0.0 | 0.0 | 0.03 | 0.48 | 0.48 | 95 | 1010.4 |
| 20260901191516 | 16 | 274 | 0.0 | 0.0 | 0.08 | 0.48 | 0.48 | 95 | 1010.4 |
| 20260901190021 | 15 | 208 | 0.0 | 0.0 | 0.08 | 0.48 | 0.48 | 96 | 1010.3 |
| 20260901184518 | 15 | 234 | 0.0 | 0.0 | 0.15 | 0.48 | 0.48 | 95 | 1010.4 |
| 20260901183031 | 15 | 229 | 0.0 | 9.7 | 0.13 | 0.46 | 0.46 | 95 | 1010.4 |
| 20260901181506 | 15 | 191 | 0.0 | 0.0 | 0.08 | 0.41 | 0.41 | 96 | 1010.3 |
| 20260901180003 | 15 | 190 | 0.0 | 0.0 | 0.10 | 0.41 | 0.41 | 95 | 1010.0 |
| 20260901174603 | 15 | 191 | 0.0 | 0.0 | 0.03 | 0.33 | 0.33 | 95 | 1010.1 |
| 20260901173108 | 15 | 191 | 0.0 | 0.0 | 0.03 | 0.33 | 0.33 | 96 | 1009.9 |
| 20260901171552 | 15 | 191 | 0.0 | 0.0 | 0.03 | 0.33 | 0.33 | 95 | 1009.7 |
| 20260901170048 | 15 | 190 | 0.0 | 0.0 | 0.03 | 0.30 | 0.30 | 95 | 1009.6 |
| 20260901164552 | 15 | 190 | 0.0 | 0.0 | 0.03 | 0.30 | 0.30 | 95 | 1009.6 |
| 20260901163042 | 15 | 191 | 0.0 | 0.0 | 0.05 | 0.30 | 0.30 | 95 | 1009.6 |
| 20260901161540 | 14 | 190 | 0.0 | 0.0 | 0.10 | 0.30 | 0.30 | 95 | 1009.5 |
| 20260901160043 | 14 | 190 | 0.0 | 0.0 | 0.15 | 0.28 | 0.28 | 95 | 1009.4 |
| 20260901154541 | 14 | 344 | 0.0 | 0.0 | 0.28 | 0.28 | 0.28 | 95 | 1009.3 |
| 20260901153040 | 14 | 345 | 0.0 | 0.0 | 0.25 | 0.25 | 0.25 | 95 | 1009.2 |
| 20260901151536 | 14 | 344 | 0.0 | 0.0 | 0.20 | 0.20 | 0.20 | 95 | 1009.2 |
| 20260901150033 | 14 | 345 | 0.0 | 0.0 | 0.13 | 0.13 | 0.13 | 95 | 1009.0 |
| 20260901144537 | 14 | 344 | 0.0 | 0.0 | 0.00 | 0.00 | 0.00 | 95 | 1008.8 |
| 20260901143030 | 14 | 345 | 0.0 | 0.0 | 0.00 | 0.00 | 0.00 | 95 | 1008.6 |
| 20260901141527 | 14 | 344 | 0.0 | 0.0 | 0.00 | 0.00 | 0.00 | 95 | 1008.3 |
| 20260901140031 | 14 | 17 | 0.0 | 0.0 | 0.00 | 0.00 | 0.00 | 95 | 1008.1 |
| 20260901134526 | 14 | 76 | 0.0 | 0.0 | 0.00 | 0.00 | 0.00 | 95 | 1007.9 |
| 20260901133037 | 14 | 76 | 0.0 | 0.0 | 0.00 | 0.00 | 0.00 | 95 | 1008.0 |
| 20260901131628 | 14 | 76 | 0.0 | 0.0 | 0.00 | 0.00 | 0.00 | 95 | 1007.9 |
| 20260901130022 | 14 | 76 | 0.0 | 0.0 | 0.00 | 0.00 | 0.00 | 95 | 1007.8 |
| 20260901124522 | 14 | 76 | 0.0 | 0.0 | 0.00 | 0.00 | 0.00 | 94 | 1008.0 |
| 20260901123021 | 14 | 76 | 0.0 | 0.0 | 0.00 | 0.00 | 0.00 | 94 | 1007.9 |
| 20260901121521 | 14 | 76 | 0.0 | 0.0 | 0.00 | 0.00 | 0.00 | 94 | 1007.8 |
| 20260901120020 | 14 | 76 | 0.0 | 0.0 | 0.00 | 0.00 | 0.00 | 94 | 1007.8 |
| 20260901114519 | 14 | 76 | 0.0 | 0.0 | 0.00 | 0.00 | 0.00 | 94 | 1007.8 |
| 20260901113020 | 14 | 76 | 0.0 | 0.0 | 0.00 | 0.00 | 0.00 | 94 | 1007.8 |
| 20260901111518 | 14 | 76 | 0.0 | 0.0 | 0.00 | 0.00 | 0.00 | 94 | 1007.8 |
| 20260901110033 | 14 | 76 | 0.0 | 0.0 | 0.00 | 0.00 | 0.00 | 94 | 1007.7 |
| 20260901104517 | 14 | 192 | 0.0 | 0.0 | 0.00 | 0.03 | 0.00 | 94 | 1008.0 |
| 20260901103015 | 14 | 192 | 0.0 | 0.0 | 0.00 | 0.03 | 0.00 | 94 | 1008.1 |
| 20260901101514 | 14 | 192 | 0.0 | 0.0 | 0.00 | 0.03 | 0.00 | 94 | 1008.1 |